[[{"header":{"parameterUnit":"m.s-1","parameterCategory":1,"la1":30.2992,"la2":30.254,"lo1":-89.0895,"lo2":-89.0443,"dy":0.0025,"dx":0.0025,"nx":19,"ny":19,"refTime":"2026-04-22T03:00:00:Z","depth":0,"parameterNumber":2,"parameterNumberName":"U-component_of_WINDS"},"data":[0,0,0,-4.4744,-4.4746,-4.4866,-4.4866,-4.5018,-4.5019,0,0,0,0,0,0,0,0,0,0,0,-4.4708,-4.4709,-4.4744,-4.4747,-4.4866,-4.4866,-4.5017,-4.5019,0,0,0,0,0,0,0,0,0,0,0,-4.4708,-4.4709,-4.471,-4.4747,-4.4865,-4.4866,-4.5017,-4.4927,0,0,0,0,0,0,0,0,0,0,-4.4812,-4.4778,-4.4709,-4.471,-4.4748,-4.4865,-4.4866,-4.4923,-4.4933,-4.4963,0,-4.4991,0,-4.5007,-4.5029,-4.503,0,0,0,-4.4747,-4.477,-4.4803,-4.471,-4.4749,-4.4865,-4.4812,-4.4929,-4.494,-4.4976,-4.4993,-4.4998,-4.501,-4.503,-4.5031,-4.5208,-4.5209,0,0,-4.474,-4.4729,-4.4795,-4.481,-4.4792,-4.4808,-4.4816,-4.4935,-4.4952,-4.4993,-4.5002,-4.5012,-4.5031,-4.5032,-4.5207,-4.5208,0,0,0,-4.4721,-4.4724,-4.4754,-4.4804,-4.4826,-4.4812,-4.482,-4.4947,-4.4957,-4.5004,-4.5014,-4.5032,-4.5034,-4.5207,-4.5208,-4.5237,0,0,0,-4.4717,-4.4713,-4.4751,-4.4746,-4.4823,-4.4888,-4.4829,-4.4949,-4.4963,-4.5013,-4.5032,-4.5035,-4.5206,-4.5207,-4.5234,-4.5251,0,0,0,-4.47,-4.4711,-4.4729,-4.4745,-4.4796,-4.4886,-4.4904,-4.4952,-4.497,-4.503,-4.5036,-4.5205,-4.5207,-4.5232,-4.5247,-4.5294,0,0,0,-4.4679,-4.4752,-4.4729,-4.4816,-4.4795,-4.4904,-4.4903,-4.4985,-4.504,-4.5033,-4.5206,-4.5208,-4.5231,-4.5245,-4.5291,-4.5329,-4.5345,0,0,-4.4765,-4.4762,-4.4814,-4.4797,-4.4907,-4.4887,-4.5002,-4.5063,-4.5078,-4.5164,-4.5169,-4.5235,-4.5247,-4.5293,-4.544,-4.5452,0,0,0,-4.4838,-4.4874,-4.4907,-4.4959,-4.5009,-4.5052,-4.5097,-4.5121,-4.5194,-4.512,-4.5267,-4.5274,-4.5301,-4.532,-4.533,-4.5354,-4.5217,-4.5216,-4.5216,-4.4941,-4.4959,-4.5046,-4.5079,-4.5131,-4.5178,-4.5221,-4.526,-4.5262,-4.5297,-4.532,-4.5408,-4.5429,-4.5437,-4.5461,-4.5345,-4.5345,-4.5345,-4.5345,-4.5067,-4.5121,-4.5125,-4.521,-4.5229,-4.5301,-4.5351,-4.5351,-4.542,-4.539,-4.5416,-4.5378,-4.545,-4.5472,-4.5348,-4.5347,-4.5347,-4.5347,-4.5346,-4.5133,-4.5162,-4.5191,-4.5271,-4.5331,-4.5363,-4.543,-4.5446,-4.5461,-4.5486,-4.5513,-4.5512,-4.5511,-4.5498,-4.5499,-4.5499,-4.5499,-4.55,-4.55,-4.519,-4.5221,-4.5276,-4.5338,-4.5375,-4.5426,-4.5477,-4.5514,-4.5558,-4.5564,-4.5564,-4.5562,-4.5455,-4.5425,-4.5504,-4.5504,-4.5503,-4.5502,-4.5502,-4.5305,-4.5282,-4.5366,-4.5404,-4.5478,-4.5537,-4.5558,-4.5632,-4.5666,-4.5698,-4.5693,-4.5612,-4.5609,-4.5601,-4.5577,-4.569,-4.569,-4.569,-4.569,-4.5359,-4.5361,-4.5451,-4.551,-4.557,-4.5599,-4.5694,-4.5736,-4.5775,-4.5797,-4.5784,-4.5755,-4.5746,-4.5748,-4.5737,-4.5714,-4.586,-4.586,-4.586,-4.543,-4.5439,-4.5516,-4.5555,-4.5616,-4.5667,-4.5757,-4.5825,-4.5865,-4.5868,-4.5814,-4.5807,-4.576,-4.5744,-4.574,-4.5722,-4.5681,0,0]},{"header":{"parameterUnit":"m.s-1","parameterCategory":1,"la1":30.2992,"la2":30.254,"lo1":-89.0895,"lo2":-89.0443,"dy":0.0025,"dx":0.0025,"nx":19,"ny":19,"refTime":"2026-04-22T03:00:00:Z","depth":0,"parameterNumber":3,"parameterNumberName":"V-component_of_WINDS"},"data":[0,0,0,3.4512,3.4511,3.4494,3.4494,3.4451,3.4451,0,0,0,0,0,0,0,0,0,0,0,3.4506,3.4505,3.4512,3.4511,3.4494,3.4494,3.4451,3.4451,0,0,0,0,0,0,0,0,0,0,0,3.4506,3.4506,3.4505,3.4511,3.4494,3.4494,3.4451,3.4471,0,0,0,0,0,0,0,0,0,0,3.4491,3.4476,3.4506,3.4505,3.4511,3.4494,3.4494,3.4473,3.447,3.445,0,3.4432,0,3.4441,3.4447,3.4446,0,0,0,3.4519,3.4478,3.4483,3.4505,3.4511,3.4494,3.4504,3.4471,3.4468,3.4447,3.4431,3.443,3.444,3.4446,3.4446,3.4313,3.4312,0,0,3.452,3.4496,3.4485,3.4481,3.4485,3.4504,3.4503,3.447,3.4451,3.4431,3.443,3.4439,3.4446,3.4445,3.4314,3.4313,0,0,0,3.4517,3.4497,3.4504,3.4482,3.4481,3.4504,3.4502,3.4452,3.4457,3.4429,3.4439,3.4445,3.4445,3.4315,3.4313,3.4244,0,0,0,3.4518,3.4496,3.4504,3.4489,3.4481,3.4467,3.4485,3.4459,3.4456,3.4439,3.4445,3.4444,3.4316,3.4314,3.4248,3.4214,0,0,0,3.4511,3.4495,3.4489,3.4488,3.448,3.4468,3.4471,3.4459,3.4461,3.4446,3.4444,3.4317,3.4315,3.4252,3.422,3.4172,0,0,0,3.4495,3.4426,3.4487,3.4413,3.448,3.4426,3.4471,3.4431,3.441,3.4445,3.4316,3.4314,3.4253,3.4224,3.4176,3.4127,3.4105,0,0,3.4395,3.4413,3.4371,3.4426,3.4355,3.443,3.4348,3.435,3.4368,3.433,3.4327,3.4247,3.4221,3.4173,3.399,3.3972,0,0,0,3.4331,3.4301,3.4287,3.4267,3.4268,3.4266,3.4283,3.4284,3.4253,3.4345,3.4217,3.4203,3.4175,3.4153,3.4138,3.4116,3.4303,3.4303,3.4303,3.4154,3.4184,3.4116,3.4144,3.4123,3.4143,3.4129,3.4133,3.4167,3.4136,3.4124,3.401,3.3983,3.3972,3.3948,3.4102,3.4101,3.4101,3.4101,3.4008,3.397,3.4019,3.3971,3.4002,3.3961,3.3976,3.4002,3.3967,3.4021,3.3998,3.4053,3.3951,3.3932,3.4096,3.4097,3.4097,3.4098,3.4098,3.3895,3.3882,3.3885,3.386,3.3837,3.3867,3.3832,3.3861,3.3888,3.3866,3.3857,3.3858,3.3862,3.386,3.3859,3.3859,3.3859,3.3858,3.3858,3.3776,3.3782,3.3751,3.3747,3.3738,3.373,3.3749,3.374,3.3738,3.3762,3.3762,3.3798,3.3936,3.397,3.3852,3.3853,3.3854,3.3854,3.3855,3.3616,3.3658,3.3608,3.3599,3.3597,3.3572,3.361,3.3591,3.3588,3.3569,3.3611,3.3709,3.3729,3.3741,3.3769,3.3606,3.3606,3.3606,3.3606,3.352,3.3534,3.3491,3.3475,3.3463,3.3493,3.3434,3.3448,3.3468,3.3468,3.3496,3.3536,3.3547,3.356,3.3576,3.3603,3.3401,3.3401,3.3401,3.3424,3.3438,3.3383,3.3406,3.3406,3.3405,3.3351,3.3329,3.336,3.3393,3.3468,3.3477,3.3541,3.3561,3.3594,3.3618,3.3667,0,0]}]]